[[{"header":{"parameterUnit":"m.s-1","parameterCategory":1,"la1":30.2991,"la2":30.254,"lo1":-89.0895,"lo2":-89.0444,"dy":0.0017,"dx":0.0017,"nx":28,"ny":28,"refTime":"2024-04-11T09:00:00:Z","depth":0,"parameterNumber":2,"parameterNumberName":"U-component_of_WINDS"},"data":[0,0,0,0,0,0,0,0,0,0,0,0,0,0,0,0,0,0,0,0,0,0,0,0,0,0,0,0,0,0,0,0,0,0,0,0,0,0,0,0,0,0,0,0,0,0,0,0,0,0,0,0,0,0,0,0,0,0,9.4008,9.401,0,9.4224,9.4226,9.4229,9.4146,9.4141,9.4136,9.4131,9.4355,9.4365,9.4375,0,0,0,0,0,0,0,0,0,0,0,0,0,9.3526,9.3535,9.4007,9.401,9.4013,9.4223,9.4226,9.4229,9.4147,9.4141,9.4135,9.4129,9.4351,9.4364,9.4376,0,0,0,0,0,0,0,0,0,0,0,0,0,9.3738,9.3538,9.4007,9.3997,9.3998,9.4223,9.4226,9.423,9.4148,9.414,9.4133,9.4126,9.4347,9.4362,9.4378,9.4626,0,0,9.4427,9.4434,0,0,0,0,0,0,0,0,9.3726,9.3756,9.3996,9.3998,9.4,9.415,9.4138,9.4363,9.415,9.4091,9.4131,9.4122,9.4293,9.4313,9.437,9.4636,9.4646,9.4428,9.4438,9.4445,9.4449,0,0,0,0,0,0,0,9.3712,9.3746,9.4093,9.3999,9.4002,9.3983,9.4004,9.4181,9.4231,9.4096,9.409,9.4117,9.4292,9.4355,9.4374,9.4649,9.4428,9.4442,9.4452,9.4458,9.5131,9.5139,0,0,0,0,0,0,9.3696,9.3734,9.4086,9.4099,9.3842,9.3997,9.4022,9.4109,9.4229,9.424,9.4123,9.4112,9.4331,9.4356,9.4382,9.468,9.4444,9.4459,9.4469,9.5123,9.5133,9.5142,0,0,0,0,0,0,9.3686,9.3728,9.4077,9.3916,9.3959,9.4014,9.4113,9.4118,9.4179,9.425,9.4259,9.4177,9.4326,9.436,9.4566,9.4687,9.4467,9.4481,9.5113,9.5126,9.5137,9.5279,0,0,0,0,0,0,9.3672,9.3725,9.3819,9.3918,9.3968,9.4258,9.412,9.4127,9.4207,9.4195,9.4303,9.4313,9.4323,9.4543,9.4582,9.4705,9.4493,9.5102,9.5119,9.5134,9.5264,9.5295,9.5321,0,0,0,0,0,9.3655,9.385,9.3824,9.3867,9.4086,9.4265,9.4293,9.4299,9.4217,9.4312,9.4358,9.431,9.4667,9.4564,9.4608,9.4737,9.5095,9.5114,9.5132,9.5251,9.5289,9.532,0,0,0,0,0,0,9.3764,9.3863,9.3835,9.4068,9.4158,9.425,9.437,9.4339,9.4455,9.4439,9.4442,9.4468,9.468,9.4729,9.4613,9.4984,9.4869,9.4897,9.4944,9.4981,9.5009,9.4993,9.4507,0,0,0,0,0,9.3815,9.3951,9.403,9.4228,9.4275,9.4316,9.4393,9.439,9.4485,9.4523,9.4583,9.4677,9.481,9.4898,9.5025,9.527,9.5293,9.5381,9.541,9.5433,9.5458,9.5592,9.5632,9.5204,9.5204,9.5203,0,0,9.3922,9.3993,9.4078,9.4252,9.4322,9.4463,9.4348,9.4502,9.4608,9.4546,9.4745,9.4793,9.4898,9.5125,9.5228,9.5173,9.5581,9.5457,9.5475,9.5487,9.5615,9.5656,9.5692,9.5216,9.5214,9.5212,0,0,9.4189,9.4256,9.4428,9.4501,9.4608,9.4634,9.4675,9.4773,9.4802,9.5001,9.4958,9.5084,9.5313,9.539,9.5459,9.5757,9.5718,9.5798,9.5949,9.608,9.6113,9.6143,9.625,9.6288,9.5822,9.5823,9.5823,0,9.4308,9.4519,9.4521,9.468,9.4758,9.4708,9.4883,9.4954,9.5097,9.5153,9.5088,9.5376,9.5443,9.5688,9.5761,9.5818,9.5866,9.5786,9.6108,9.6138,9.6166,9.6268,9.6308,9.5832,9.5831,9.583,9.5829,0,9.4661,9.4808,9.4935,9.5074,9.5166,9.5332,9.5361,9.5454,9.5443,9.5476,9.568,9.5759,9.5902,9.5959,9.5951,9.6204,9.6166,9.6106,9.599,9.6216,9.6312,9.6351,9.5845,9.5842,9.5839,9.5837,0,0,9.5002,9.5141,9.5187,9.525,9.5365,9.5479,9.5644,9.5782,9.5863,9.5964,9.6102,9.6298,9.6242,9.6321,9.6321,9.6436,9.6667,9.6361,9.6363,9.6415,9.6952,9.6997,9.7042,9.6642,9.6649,9.6655,9.6943,0,9.5278,9.5566,9.5573,9.5837,9.5973,9.5929,9.6072,9.6159,9.6194,9.6316,9.6355,9.6494,9.641,9.6457,9.6569,9.6615,9.6775,9.6595,9.6772,9.6778,9.6746,9.7092,9.714,9.7408,9.698,9.6987,9.6991,0,9.5639,9.5751,9.6028,9.6124,9.6182,9.631,9.6438,9.6555,9.6653,9.667,9.6759,9.6742,9.6911,9.679,9.7023,9.69,9.6973,9.7007,9.7018,9.7034,9.6898,9.7118,9.7493,9.7533,9.705,9.7046,9.7041,0,9.5861,9.6081,9.6275,9.6331,9.6447,9.6539,9.6592,9.6682,9.6765,9.6877,9.6931,9.7062,9.7134,9.7236,9.7255,9.7165,9.749,9.737,9.751,9.7509,9.758,9.7575,9.7972,9.7627,9.7626,9.7626,9.7625,0,9.6169,9.634,9.6376,9.6496,9.6687,9.6695,9.6884,9.693,9.7011,9.714,9.7109,9.7231,9.7248,9.7375,9.7391,9.7582,9.7615,9.7634,9.7637,9.7637,9.7635,9.7685,9.7667,9.7636,9.7634,9.7632,9.763,0,9.6448,9.6479,9.6689,9.6782,9.681,9.6947,9.7027,9.7142,9.7174,9.7337,9.7376,9.7427,9.7574,9.7603,9.7777,9.7788,9.8016,9.8,9.7983,9.7981,9.8119,9.8106,9.8562,9.8622,9.8238,9.8242,9.8245,0,9.6643,9.6774,9.6881,9.6965,9.7022,9.7157,9.7242,9.7254,9.7344,9.7465,9.7566,9.771,9.7825,9.8063,9.8116,9.8249,9.8236,9.8387,9.8256,9.8252,9.8238,9.823,9.8243,9.8411,9.8416,9.8419,9.8422,0,9.6985,9.6994,9.7116,9.7246,9.7347,9.7449,9.7546,9.7617,9.7642,9.7745,9.7894,9.7984,9.8161,9.8305,9.8438,9.8493,9.8463,9.8463,9.8502,9.8504,9.8489,9.8499,9.8051,9.8452,9.8449,9.8447,9.8445,9.8444,9.7229,9.7343,9.7437,9.7574,9.7649,9.774,9.7853,9.7899,9.8024,9.8169,9.8169,9.8333,9.8428,9.8603,9.8667,9.8796,9.8749,9.8806,9.882,9.8834,9.8847,9.8468,9.8821,9.882,9.8819,9.8818,9.8818,0,9.7569,9.7627,9.7754,9.789,9.7999,9.796,9.8066,9.816,9.8304,9.8395,9.8509,9.8681,9.882,9.8885,9.9022,9.9113,9.9102,9.9149,9.9142,9.9155,9.8882,9.8834,9.9155,9.9155,9.9155,9.9155,9.9154,9.9154,9.7759,9.7951,9.7972,9.82,9.8257,9.8417,9.848,9.8565,9.8637,9.8831,9.8946,9.8986,9.9067,9.921,9.9336,9.9352,9.9404,9.9457,9.9466,9.9209,9.9175,9.9142,9.9097,9.9468,9.9468,9.9729,9.9731,9.9733]},{"header":{"parameterUnit":"m.s-1","parameterCategory":1,"la1":30.2991,"la2":30.254,"lo1":-89.0895,"lo2":-89.0444,"dy":0.0017,"dx":0.0017,"nx":28,"ny":28,"refTime":"2024-04-11T09:00:00:Z","depth":0,"parameterNumber":3,"parameterNumberName":"V-component_of_WINDS"},"data":[0,0,0,0,0,0,0,0,0,0,0,0,0,0,0,0,0,0,0,0,0,0,0,0,0,0,0,0,0,0,0,0,0,0,0,0,0,0,0,0,0,0,0,0,0,0,0,0,0,0,0,0,0,0,0,0,0,0,0.5669,0.567,0,0.5698,0.5698,0.5699,0.5694,0.5693,0.5693,0.5692,0.5721,0.5722,0.5724,0,0,0,0,0,0,0,0,0,0,0,0,0,0.5609,0.561,0.5669,0.567,0.567,0.5698,0.5698,0.5699,0.5694,0.5693,0.5692,0.5692,0.5721,0.5722,0.5724,0,0,0,0,0,0,0,0,0,0,0,0,0,0.5636,0.561,0.5669,0.5671,0.5671,0.5698,0.5698,0.5699,0.5694,0.5693,0.5692,0.5692,0.572,0.5722,0.5724,0.5751,0,0,0.573,0.5731,0,0,0,0,0,0,0,0,0.5635,0.5638,0.567,0.5671,0.5671,0.5691,0.5688,0.5716,0.5694,0.5685,0.5692,0.5691,0.5712,0.5714,0.5721,0.5752,0.5753,0.573,0.5731,0.5732,0.5732,0,0,0,0,0,0,0,0.5633,0.5637,0.5681,0.5671,0.5671,0.567,0.5673,0.5693,0.5702,0.5686,0.5686,0.5689,0.5712,0.572,0.5722,0.5754,0.573,0.5732,0.5733,0.5733,0.5807,0.5808,0,0,0,0,0,0,0.563,0.5636,0.568,0.5681,0.5651,0.5671,0.5675,0.5686,0.5702,0.5704,0.569,0.5689,0.5717,0.572,0.5723,0.5755,0.5732,0.5734,0.5735,0.5806,0.5807,0.5808,0,0,0,0,0,0,0.5629,0.5634,0.5678,0.5658,0.5664,0.5673,0.5686,0.5687,0.5694,0.5705,0.5707,0.5696,0.5716,0.5721,0.5744,0.5756,0.5734,0.5736,0.5805,0.5807,0.5808,0.582,0,0,0,0,0,0,0.5627,0.5634,0.5645,0.5659,0.5665,0.5699,0.5686,0.5688,0.5698,0.5697,0.5711,0.5713,0.5716,0.5741,0.5746,0.5759,0.5738,0.5804,0.5806,0.5807,0.5819,0.5822,0.5825,0,0,0,0,0,0.5625,0.5647,0.5645,0.5651,0.5678,0.57,0.5703,0.5707,0.5699,0.5709,0.5716,0.5713,0.5754,0.5744,0.5749,0.5762,0.5804,0.5806,0.5807,0.5818,0.5821,0.5824,0,0,0,0,0,0,0.5634,0.5649,0.5647,0.5674,0.5686,0.5699,0.5712,0.571,0.5725,0.5723,0.5726,0.573,0.5753,0.576,0.5748,0.5789,0.5778,0.5781,0.5784,0.5787,0.579,0.5788,0.5739,0,0,0,0,0,0.5639,0.5656,0.5667,0.569,0.5696,0.5703,0.5713,0.5714,0.5726,0.5731,0.574,0.5751,0.5767,0.5777,0.5792,0.5819,0.5823,0.5831,0.5834,0.5836,0.5839,0.5854,0.5858,0.5814,0.5814,0.5814,0,0,0.565,0.566,0.567,0.5692,0.5701,0.5718,0.5707,0.5726,0.5738,0.5734,0.5757,0.5763,0.5776,0.5802,0.5813,0.5808,0.5851,0.5839,0.584,0.5842,0.5856,0.586,0.5864,0.5816,0.5816,0.5815,0,0,0.5678,0.5687,0.5707,0.5716,0.573,0.5735,0.574,0.5753,0.5757,0.578,0.5777,0.5791,0.5818,0.5828,0.5836,0.5867,0.5864,0.5872,0.5887,0.5901,0.5904,0.5907,0.5918,0.5922,0.5874,0.5874,0.5874,0,0.569,0.5715,0.5717,0.5736,0.5745,0.5742,0.5762,0.5771,0.5789,0.5796,0.5789,0.5823,0.5832,0.5859,0.5866,0.5873,0.5878,0.5871,0.5903,0.5907,0.5909,0.592,0.5924,0.5875,0.5875,0.5875,0.5875,0,0.5728,0.5746,0.576,0.5778,0.5789,0.5808,0.5813,0.5824,0.5824,0.5829,0.5851,0.5862,0.5878,0.5885,0.5885,0.5912,0.5908,0.5903,0.5892,0.5914,0.5924,0.5928,0.5876,0.5876,0.5876,0.5876,0,0,0.5764,0.5782,0.5787,0.5795,0.581,0.5823,0.5842,0.5858,0.5868,0.588,0.5895,0.5918,0.5912,0.5922,0.5923,0.5935,0.5959,0.5928,0.5928,0.5934,0.5989,0.5994,0.5998,0.5957,0.5958,0.5958,0.5988,0,0.5793,0.5827,0.5829,0.5859,0.5875,0.5872,0.5888,0.5898,0.5903,0.5917,0.5922,0.5938,0.593,0.5936,0.5947,0.5954,0.597,0.5951,0.5971,0.5972,0.5969,0.6003,0.6008,0.6036,0.5992,0.5992,0.5993,0,0.5833,0.5846,0.5878,0.589,0.5897,0.5911,0.5926,0.594,0.5951,0.5954,0.5964,0.5963,0.5982,0.597,0.5995,0.5982,0.599,0.5994,0.5995,0.5998,0.5984,0.6007,0.6045,0.6049,0.5999,0.5999,0.5998,0,0.5856,0.5882,0.5904,0.5911,0.5926,0.5936,0.5942,0.5953,0.5963,0.5976,0.5982,0.5997,0.6005,0.6016,0.6019,0.601,0.6044,0.6032,0.6047,0.6047,0.6055,0.6055,0.6095,0.6059,0.6059,0.6059,0.6059,0,0.5889,0.5909,0.5915,0.5928,0.595,0.5952,0.5973,0.5979,0.5988,0.6003,0.6,0.6014,0.6017,0.6031,0.6033,0.6053,0.6057,0.606,0.606,0.606,0.606,0.6066,0.6064,0.606,0.606,0.606,0.606,0,0.5919,0.5924,0.5948,0.5959,0.5963,0.5978,0.5988,0.6001,0.6005,0.6023,0.6027,0.6034,0.605,0.6054,0.6073,0.6075,0.6099,0.6098,0.6095,0.6096,0.611,0.6109,0.6156,0.6162,0.6122,0.6123,0.6123,0,0.594,0.5955,0.5968,0.5978,0.5985,0.6,0.601,0.6012,0.6023,0.6037,0.6048,0.6063,0.6076,0.6102,0.6108,0.6123,0.6122,0.6137,0.6124,0.6124,0.6122,0.6122,0.6123,0.614,0.6141,0.6141,0.6141,0,0.5977,0.5979,0.5993,0.6008,0.602,0.6032,0.6043,0.6051,0.6054,0.6066,0.6082,0.6092,0.6112,0.6128,0.6142,0.6148,0.6145,0.6145,0.615,0.615,0.6148,0.615,0.6103,0.6144,0.6144,0.6144,0.6144,0.6144,0.6004,0.6016,0.6028,0.6044,0.6052,0.6063,0.6075,0.6081,0.6095,0.6111,0.6112,0.613,0.614,0.6159,0.6166,0.618,0.6175,0.6181,0.6183,0.6184,0.6186,0.6146,0.6182,0.6182,0.6182,0.6182,0.6182,0,0.6041,0.6048,0.6062,0.6078,0.609,0.6087,0.6099,0.6109,0.6125,0.6135,0.6148,0.6167,0.6182,0.6189,0.6203,0.6213,0.6212,0.6217,0.6216,0.6218,0.6189,0.6184,0.6217,0.6217,0.6217,0.6217,0.6217,0.6217,0.6062,0.6083,0.6086,0.6112,0.6118,0.6136,0.6144,0.6153,0.6161,0.6182,0.6195,0.6199,0.6208,0.6223,0.6236,0.6238,0.6244,0.6249,0.625,0.6223,0.622,0.6216,0.6212,0.625,0.625,0.6278,0.6278,0.6278]}]]